Das Wetter in  D-61279 Heinzenberg / Taunus





Wetter Minimum- & Maximum-Werte im April 2009

Standort: Heinzenberg / Taunus - Höhe 297 m         8 24' 1" Ost 50 21' 51" Nord
(   3-stündige Aktualisierung    letzte Aktualisierung um 19:04 am 30.04.2009  )


Messgrösse

Minimum

Maximum

Durchschnitt

Temperatur West /
Luftfeuchte West
Anklicken für Monats-Diagramm

-1,8 C

06:56
01.04.2009

29 %

16:50
14.04.2009

25,2 C

16:12
11.04.2009

93 %

06:04
18.04.2009

Temp

11,9 C

Feuchte

69 %

Temperatur Ost /
Luftfeuchte Ost
Anklicken für Monats-Diagramm

-1,0 C

07:01
01.04.2009

--

--
--

25,7 C

15:07
11.04.2009

--

--
--

12,4 C

--

Luftdruck Anklicken für Monats-Diagramm

1001,5 hPa

04:52
28.04.2009

1025,2 hPa

06:33
24.04.2009

1013,9 hPa

Taupunkt

-4,3 C

06:56
01.04.2009

12,6 C

12:00
14.04.2009

5,9 C

Windchill
( gefühlte Temperatur )

-5,5 C

06:06
01.04.2009

25,2 C

16:12
11.04.2009

10,6 C

Windgeschwindigkeit /
Windrichtung
Anklicken für Monats-Diagramm

---

44,3 km/h / W-SW

14:59
08.04.2009

6,7 km/h
SO

Helligkeit /
Sonnenschein
Anklicken für Monats-Diagramm
Anklicken für Monats-Diagramm

Sonnenschein:

208:46 Stunden

Max: 12:05 Std am
20.04.2009

111 klux

12:16
27.04.2009

39 klux

Solarstrahlung Anklicken für Monats-Diagramm

---

759 W/m

12:16
27.04.2009

286 W/m

Regenmenge
    April 2009
Anklicken für Monats-Diagramm

Insgesamt 55,0 l/m

in 46:14 Stunden
an 12 Tagen

31,2 l/m

03:08
17.04.2009

Gesamtmenge

55,0 l/m

Regen-Tage
    April 2009
Anklicken für Monats-Diagramm

>   0 mm/Tag

>   2 mm/Tag

>   5 mm/Tag

> 10 mm/Tag

> 20 mm/Tag

12 Tage     
3 Tage     
3 Tage     
2 Tage     
  1 Tag     

Eisige Tage April 2009 / 2008

Tmin ≤ -10C     

0 Tage

/

0 Tage

Eistage April 2009 / 2008

Tmax <     0C     

0 Tage

/

0 Tage

Frosttage April 2009 / 2008

Tmin ≤     0C     

  1 Tag

/

6 Tage

Kalte Tage April 2009 / 2008

Tmax <   10C     

  1 Tag

/

11 Tage

Warme Tage April 2009 / 2008

Tmax ≥   20C     

14 Tage

/

  1 Tag

Sommertage April 2009 / 2008

Tmax ≥   25C     

2 Tage

/

0 Tage

Heisse Tage April 2009 / 2008

Tmax ≥   30C     

0 Tage

/

0 Tage


Monatsdiagramm April 2009

Die Kurven zeigen den Durchschnittswert des jeweiligen Tages an


Wetter-Monatsübersicht April 2009
Datum
  Temperatur
   Luftdruck
   Wind
  Regen
   Luftfeuchte
   Helligkeit

Sonnen-
schein


Temp.

Min.
Temp.

Max.
Temp.


Luftdruck

Min.
Luftdruck

Max.
Luftdruck

-Geschw.
Haupt-Richtg.

Max.
Wind

Menge /
Dauer


Feuchte

Min.
Feuchte

Max.
Feuchte


Helligkeit

Max.
Helligkeit

1.
April
7,8 C-1,8 C
06:56
17,8 C
16:01
1019,6 hPa1017,0 hPa
16:01
1021,9 hPa
00:31
12,4 km/h
NO
36,7 km/h
16:31  
---
62 %38 %
16:26
86 %
08:11
47,1 klux84,3 klux
13:16
11:15 Std 
2.
April
12,7 C4,9 C
07:56
22,0 C
16:36
1017,1 hPa1014,4 hPa
16:36
1019,5 hPa
07:26
7,9 km/h
NO
31,9 km/h
16:11  
---
57 %42 %
16:41
71 %
08:41
45,5 klux82,5 klux
13:01
11:10 Std 
3.
April
12,2 C3,7 C
07:22
21,6 C
16:12
1016,6 hPa1014,4 hPa
16:12
1017,7 hPa
07:22
6,3 km/h
SO
25,6 km/h
17:22  
---
66 %45 %
16:12
85 %
08:47
46,6 klux84,9 klux
13:22
10:35 Std 
4.
April
12,7 C7,6 C
06:18
19,4 C
14:08
1019,1 hPa1017,7 hPa
00:03
1022,1 hPa
23:59
7,1 km/h
W-SW
35,9 km/h
19:48  
---
1:10 Stunden
72 %54 %
14:43
87 %
09:38
28,1 klux88,4 klux
13:28
3:15 Std 
5.
April
10,8 C5,4 C
06:14
17,6 C
14:49
1022,6 hPa1020,3 hPa
17:59
1024,7 hPa
07:59
2,6 km/h
W-NW
13,1 km/h
13:59  
---
10 Minuten
77 %60 %
14:59
89 %
08:54
54,1 klux80,4 klux
14:24
5:20 Std 
6.
April
19,7 C12,0 C
23:34
21,3 C
16:33
1011,3 hPa1010,4 hPa
18:18
1012,5 hPa
16:18
11,1 km/h
O-SO
26,1 km/h
17:13  
---
48 %41 %
18:18
70 %
23:49
62,9 klux71,6 klux
16:23
3:35 Std 
7.
April
13,9 C5,8 C
07:29
21,7 C
16:49
1010,4 hPa1008,2 hPa
16:49
1013,5 hPa
23:59
11,3 km/h
W-SW
43,5 km/h
14:09  
---
63 %37 %
15:39
87 %
08:59
46,5 klux105,0 klux
14:09
9:20 Std 
8.
April
12,2 C8,7 C
06:44
16,6 C
14:54
1014,6 hPa1013,0 hPa
15:24
1016,6 hPa
23:50
15,7 km/h
W-SW
44,3 km/h
14:59  
---
2:30 Stunden
66 %40 %
17:29
85 %
02:34
35 klux104 klux
12:39
4:15 Std 
9.
April
13,1 C8,6 C
23:56
20,5 C
16:25
1016,1 hPa1013,7 hPa
17:40
1018,6 hPa
11:25
5,9 km/h
W-SW
26,4 km/h
00:45  
0,3 l/m
1:35 Stunden
71 %54 %
16:45
83 %
06:50
27 klux102 klux
12:25
3:40 Std 
10.
April
14,3 C6,6 C
07:16
24,4 C
16:26
1010,1 hPa1005,9 hPa
16:26
1015,0 hPa
00:36
6,3 km/h
O-SO
29,7 km/h
14:51  
---
65 %37 %
16:56
88 %
08:41
48 klux89 klux
12:31
10:50 Std 
11.
April
14,7 C6,1 C
06:27
25,2 C
16:12
1007,7 hPa1005,8 hPa
16:12
1010,0 hPa
08:12
4,2 km/h
SO
22,0 km/h
15:37  
---
63 %35 %
18:22
85 %
09:42
45,8 klux88,3 klux
14:37
9:10 Std 
12.
April
14,5 C5,6 C
06:48
23,6 C
16:03
1009,2 hPa1007,0 hPa
16:13
1011,2 hPa
07:53
4,8 km/h
SO
19,4 km/h
14:13  
---
61 %37 %
15:38
82 %
07:47
38,3 klux93,7 klux
12:13
7:25 Std 
13.
April
13,6 C5,3 C
07:09
25,0 C
16:09
1008,7 hPa1005,8 hPa
16:09
1011,2 hPa
08:04
4,4 km/h
NW
22,3 km/h
16:44  
---
66 %36 %
15:49
84 %
09:54
45,9 klux86,9 klux
13:04
10:20 Std 
14.
April
13,7 C5,2 C
07:05
24,7 C
16:40
1008,9 hPa1006,9 hPa
16:40
1010,6 hPa
23:56
4,4 km/h
NO
25,0 km/h
16:50  
---
64 %29 %
16:50
92 %
10:45
46,7 klux88,6 klux
13:05
10:05 Std 
15.
April
14,1 C5,1 C
06:56
24,5 C
15:56
1009,2 hPa1006,9 hPa
15:56
1011,3 hPa
06:56
5,6 km/h
SO
29,3 km/h
15:51  
---
58 %33 %
14:21
83 %
09:21
46,7 klux89,1 klux
13:11
9:55 Std 
16.
April
12,5 C6,4 C
05:27
19,2 C
14:47
1006,6 hPa1003,9 hPa
20:27
1009,8 hPa
01:47
5,8 km/h
W-SW
24,8 km/h
22:43  
---
25 Minuten
64 %49 %
16:02
78 %
23:38
31,2 klux85,3 klux
12:57
3:45 Std 
17.
April
8,6 C8,0 C
18:03
10,9 C
00:03
1005,6 hPa1004,4 hPa
01:28
1008,8 hPa
22:29
13,2 km/h
W
36,4 km/h
12:58  
31,2 l/m
16:00 Stunden
89 %79 %
00:03
92 %
22:59
7,8 klux22,2 klux
11:53
--- 
18.
April
7,8 C6,8 C
13:54
8,8 C
17:24
1012,3 hPa1008,8 hPa
00:29
1018,2 hPa
23:50
2,7 km/h
NO
18,4 km/h
12:49  
6,4 l/m
8:14 Stunden
91 %89 %
18:04
93 %
06:04
8,8 klux28,3 klux
15:34
--- 
19.
April
11,9 C6,6 C
07:10
19,9 C
17:00
1020,8 hPa1018,2 hPa
00:55
1024,2 hPa
23:56
5,1 km/h
NO
19,8 km/h
18:50  
---
75 %49 %
17:05
91 %
08:30
52,0 klux101,0 klux
13:40
11:51 Std 
20.
April
11,4 C2,8 C
07:31
21,0 C
17:16
1023,2 hPa1020,7 hPa
17:16
1025,0 hPa
07:31
5,4 km/h
SO
21,9 km/h
18:21  
---
70 %45 %
18:26
90 %
09:11
51 klux93 klux
13:16
12:05 Std 
21.
April
11,9 C3,1 C
06:51
21,5 C
15:36
1022,5 hPa1019,7 hPa
17:31
1025,0 hPa
07:21
4,3 km/h
SO
19,0 km/h
14:01  
---
65 %42 %
17:06
86 %
08:21
50,3 klux90,7 klux
13:11
11:45 Std 
22.
April
9,5 C3,3 C
07:02
15,7 C
14:07
1022,4 hPa1020,3 hPa
16:27
1023,9 hPa
07:02
9,0 km/h
NW
33,1 km/h
16:42  
---
66 %44 %
18:22
86 %
08:52
44,5 klux101,0 klux
13:07
9:49 Std 
23.
April
7,6 C2,6 C
03:03
14,0 C
15:18
1023,7 hPa1022,6 hPa
00:03
1024,8 hPa
23:58
4,4 km/h
NO
23,1 km/h
14:38  
---
68 %53 %
15:48
80 %
07:13
34 klux110 klux
11:23
5:00 Std 
24.
April
9,8 C1,6 C
06:33
17,7 C
16:13
1020,8 hPa1014,9 hPa
23:39
1025,2 hPa
06:33
7,5 km/h
O-SO
34,6 km/h
15:38  
---
16 Minuten
68 %46 %
18:18
88 %
09:18
49 klux100 klux
14:48
11:10 Std 
25.
April
12,3 C4,3 C
04:44
19,8 C
17:39
1013,3 hPa1012,3 hPa
05:49
1015,2 hPa
01:34
11,5 km/h
W-SW
43,5 km/h
11:28  
---
68 %52 %
17:49
86 %
05:09
49 klux106 klux
12:19
9:41 Std 
26.
April
13,4 C5,9 C
07:40
21,2 C
16:00
1008,2 hPa1003,6 hPa
20:30
1013,0 hPa
02:55
4,7 km/h
SO
24,0 km/h
17:40  
---
66 %42 %
18:00
86 %
09:10
48 klux100 klux
14:05
9:50 Std 
27.
April
12,1 C10,0 C
07:11
14,4 C
18:31
1005,0 hPa1003,2 hPa
22:42
1006,4 hPa
07:51
11,0 km/h
W-SW
34,5 km/h
12:31  
---
50 Minuten
69 %59 %
18:31
82 %
03:41
24 klux111 klux
12:16
1:15 Std 
28.
April
8,7 C6,8 C
23:43
10,3 C
00:02
1004,4 hPa1001,5 hPa
04:52
1007,9 hPa
23:43
4,0 km/h
W-SW
18,5 km/h
18:17  
14,4 l/m
10:29 Stunden
87 %74 %
00:02
90 %
09:07
13 klux38 klux
14:42
--- 
29.
April
8,8 C6,2 C
03:43
12,7 C
14:53
1010,1 hPa1007,8 hPa
07:33
1015,0 hPa
23:09
1,9 km/h
W-SW
21,3 km/h
15:53  
1,5 l/m
1:40 Stunden
86 %68 %
14:58
93 %
09:38
25,3 klux77,8 klux
11:23
1:05 Std 
30.
April
10,7 C8,4 C
00:04
13,6 C
16:09
1017,8 hPa1015,0 hPa
01:59
1020,9 hPa
23:35
1,3 km/h
W-NW
12,0 km/h
16:04  
1,2 l/m
2:55 Stunden
89 %81 %
19:14
93 %
11:19
15,8 klux88,9 klux
16:04
1:20 Std 



April
2009

Temperatur

  

Luftdruck

  

Wind

  

Regen

  

Luftfeuchte

  

Helligkeit

Sonnen-
schein

Min

Max

Min

Max

Max

Max

Min

Max

Max

Max

11,9 C

-1,8 C

06:56 Uhr
01.04.2009

25,2 C

16:12 Uhr
11.04.2009

1013,9 hPa

1001,5 hPa

04:52 Uhr
28.04.2009

1025,2 hPa

06:33 Uhr
24.04.2009

6,7 km/h

SO

44,3 km/h

14:59 Uhr
08.04.2009

31,2 l/m

16:00 Stunden
17.04.2009

69 %

29 %

16:50 Uhr
14.04.2009

93 %

06:04 Uhr
18.04.2009

38,9 klux

111,0 klux

12:16 Uhr
27.04.2009

12:05 Std

am
20.04.2009

Gesamt

Gesamt

55,0 l/m

12 Tage
46:14 h

208:46 Std


Wetter-Diagramme April 2009     Heinzenberg / Taunus   
TemperaturLuftfeuchte
SolarstrahlungLuftdruck
HelligkeitSonnenschein
RegenmengeRegendauer
Wind-GeschwindigkeitWind-Richtung